Find LizzieSat-1

NORAD ID: 59132 Int'l Des: 2024-043 Owner: SIDUS Country: US operational
LEOCIRCULARRETROGRADESSO

リアルタイム位置

3D地球を読み込み中...

LizzieSat-1について

説明を読み込み中...

次回通過

Passes for default location (London). Set your location on the main map for personalized predictions.

高度履歴

Loading altitude history...

軌道要素

1 59132U 24043AL 26134.29253229 .00002674 00000-0 10296-3 0 9993
2 59132 97.5585 269.6480 0010947 12.9110 347.2407 15.27232312121763
Epoch: May 14, 2026 • Age: 10 hours

現在のステータス

高度 495.8 km
速度 7.61 km/s
衛星直下点 -6.98°S, 42.37°W
打ち上げ日 Mar 4, 2024
運用期間 2.1 years
タイプ other

技術仕様

分類 Payload
質量 100.00 kg
乾燥質量 100.00 kg
総質量 100.00 kg
長さ 0.40 m
直径 0.80 m
スパン 1.40 m
形状 Oct cyl+8 pan
製造者 SIDUS
バスタイプ LizzieSat
フェーズステータス In Orbit
所有者/国 SIDUS/US

Most Searched